www.pogodaiklimat.ru

Погода и климат >> Архив погоды >> Дания >> Маяк Hammer Odde


ПОГОДА на Маяке Hammer Odde

  • Прогноз погоды на Маяке Hammer Odde
  • Монитор погоды на Маяке Hammer Odde

АРХИВ ПОГОДЫ на Маяке Hammer Odde

Время (UTC), дата Ветер
(напр.,м/с)
 
Видим.   Явления Облачность Т
(С)
Тd
(С)
f
(%)
Тe
(С)
Тes
(С)
Комфортность P
(гПа)
Po
(гПа)
Тmin
(С)
Tmax
(С)
R
(мм)
R24
(мм)
S
(см)
10 17.06 ЮЗ 5 28 км ясно +18.5 +14.2 76 +19 +27 1022.2 1021.1
11 17.06 ЮЗ 4 30 км ясно +20.3 +14.0 67 +23 +33 комфорт 1022.0 1020.9
12 17.06 ЮЗ 7 27 км ясно +18.7 +14.5 77 +19 +24 1022.1 1021.0
13 17.06 ЮЗ 6 30 км н/о +19.2 +13.7 70 +20 +20 1022.2 1021.1
14 17.06 ЮЗ 7 30 км ясно +19.1 +12.9 67 +20 +23 1022.0 1020.9
15 17.06 ЮЗ 5 35 км ясно +19.6 +13.5 68 +21 +25 комфорт 1022.0 1020.9
16 17.06 ЮЗ 6 30 км н/о +18.9 +13.0 69 +19 +19 1021.8 1020.7
17 17.06 ЮЗ 6 40 км ясно +18.9 +12.1 65 +19 +20 1021.4 1020.3
18 17.06 ЮЗ 5 40 км ясно +18.2 +11.8 66 +18 +19 1021.4 1020.3 +16.5 +20.5
19 17.06 ЮЗ 5 40 км ясно +17.3 +11.0 66 +17 +17 1021.2 1020.1
20 17.06 ЮЗ 4 45 км ясно +16.2 +11.1 72 +15 +15 1021.3 1020.1
21 17.06 ЮЗ 4 45 км ясно +15.7 +11.3 75 +15 +15 1021.2 1020.1
22 17.06 ЮЗ 4 35 км ясно +15.1 +10.9 76 +14 +14 1021.3 1020.1
23 17.06 ЮЗ 3 45 км ясно +15.1 +10.8 75 +14 +14 1021.5 1020.4
00 18.06 ЮЗ 3 45 км ясно +14.9 +10.9 77 +14 +14 1021.5 1020.4
01 18.06 ЮЗ 3 45 км ясно +14.5 +9.9 74 +14 +14 1021.5 1020.4
02 18.06 З 1 45 км ясно +14.2 +10.3 77 +15 +15 1021.2 1020.1
03 18.06 штиль 0 40 км ясно +14.0 +11.2 83 +14 +14 1021.2 1020.0
04 18.06 Ю 1 50 км ясно +15.7 +12.4 81 +16 +17 1021.2 1020.0
05 18.06 ЮВ 1 35 км ясно +18.0 +13.0 73 +19 +22 1021.0 1019.9
06 18.06 ЮВ 2 30 км ясно +18.5 +13.2 71 +20 +25 1021.0 1019.8 +13.8 +18.6
07 18.06 В 2 30 км ясно +19.0 +13.9 72 +21 +29 комфорт 1020.9 1019.7
08 18.06 ЮВ 2 35 км н/о +19.3 +13.3 68 +21 +21 комфорт 1020.5 1019.4
09 18.06 ЮВ 2 35 км ясно +19.1 +13.7 71 +21 +34 комфорт 1020.3 1019.2
10 18.06 ЮВ 3 30 км 1/0
[]
+19.5 +13.6 69 +21 +33 комфорт 1019.9 1018.8
11 18.06 ЮВ 3 35 км 1/0
[]
+19.2 +13.7 70 +21 +33 комфорт 1019.7 1018.6
12 18.06 В 3 30 км 1/0
[]
+19.5 +13.3 67 +21 +33 комфорт 1019.3 1018.1
13 18.06 ЮВ 3 35 км 1/0
[]
+19.6 +14.1 71 +22 +32 комфорт 1018.8 1017.7
14 18.06 ЮВ 3 27 км ясно +20.9 +15.2 70 +24 +33 комфорт 1018.2 1017.1
15 18.06 ЮВ 3 27 км ясно +20.8 +14.7 68 +24 +31 комфорт 1017.6 1016.5
16 18.06 ЮВ 3 40 км ясно +19.9 +14.7 72 +22 +26 комфорт 1017.0 1015.9
17 18.06 ЮВ 3 35 км ясно +19.4 +14.8 75 +21 +23 комфорт 1016.7 1015.6
18 18.06 ЮВ 3 35 км ясно +18.4 +14.4 78 +19 +20 1016.2 1015.1 +17.5 +21.0
19 18.06 ЮВ 3 40 км 1/0
[]
+17.7 +14.0 79 +18 +18 1015.8 1014.7
20 18.06 ЮВ 3 40 км ясно +17.5 +13.0 75 +18 +18 1015.8 1014.7
21 18.06 В 2 35 км ясно +16.8 +13.4 80 +17 +17 1015.7 1014.6
22 18.06 ЮВ 2 50 км ясно +18.0 +12.9 72 +19 +19 1015.5 1014.3
23 18.06 ЮВ 2 40 км ясно +18.3 +13.7 75 +19 +19 1015.2 1014.1
00 19.06 Ю 5 40 км ясно +20.9 +12.4 58 +23 +23 комфорт 1014.6 1013.5
01 19.06 Ю 6 45 км ясно +20.7 +11.1 54 +22 +22 комфорт 1014.0 1012.9
02 19.06 Ю 6 35 км ясно +20.4 +11.3 56 +22 +22 комфорт 1013.8 1012.7
03 19.06 Ю 6 35 км ясно +20.5 +12.4 60 +22 +22 комфорт 1013.6 1012.5
04 19.06 Ю 6 40 км ясно +20.4 +13.2 63 +22 +23 комфорт 1013.5 1012.4
05 19.06 Ю 5 30 км ясно +21.0 +14.0 64 +24 +25 комфорт 1013.4 1012.3
06 19.06 Ю 5 26 км ясно +22.0 +14.5 62 +25 +28 комфорт 1013.2 1012.1 +16.5 +22.0
07 19.06 Ю 4 30 км 1/0
[]
+23.8 +14.6 56 +26 +31 жарко 1013.1 1012.0
08 19.06 Ю 4 30 км ясно +24.8 +15.3 56 +28 +36 жарко 1012.9 1011.8
09 19.06 ЮВ 3 30 км 1/0
[]
+23.6 +15.3 60 +27 +38 жарко 1012.8 1011.7
10 19.06 ЮВ 4 26 км 1/0
[]
+21.2 +15.5 70 +24 +34 комфорт 1012.6 1011.5
11 19.06 ЮВ 3 21 км 1/0
[]
+21.2 +15.7 71 +24 +37 комфорт 1012.1 1011.0
12 19.06 В 4 27 км 1/0
[]
+21.1 +15.3 69 +24 +35 комфорт 1011.9 1010.8
13 19.06 ЮВ 4 25 км 1/0
[]
+20.1 +15.4 74 +23 +32 комфорт 1011.7 1010.6
14 19.06 В 2 27 км н/о +19.7 +15.7 78 +23 +23 комфорт 1011.2 1010.1
15 19.06 В 2 28 км 1/0
[]
+19.8 +15.9 78 +23 +31 комфорт 1010.3 1009.2
16 19.06 В 2 24 км ясно +20.2 +15.6 75 +23 +28 комфорт 1009.8 1008.7
17 19.06 В 3 25 км 1/0
[]
+20.1 +15.5 75 +23 +25 комфорт 1009.4 1008.3
18 19.06 ЮВ 3 30 км ясно +20.0 +15.3 74 +23 +24 комфорт 1008.9 1007.8 +19.1 +26.6
19 19.06 ЮВ 3 30 км ясно +18.6 +15.6 83 +20 +20 1008.6 1007.5
20 19.06 ЮВ 3 25 км ясно +17.4 +15.5 89 +18 +18 1008.8 1007.7
21 19.06 ЮВ 3 27 км ясно +16.8 +15.3 91 +17 +17 1008.3 1007.2
22 19.06 ЮВ 3 22 км ясно +16.7 +15.1 90 +16 +16 1007.9 1006.8
23 19.06 ЮВ 4 24 км ясно +16.9 +15.2 90 +16 +16 1007.1 1006.0
00 20.06 В 3 23 км ясно +16.9 +15.2 90 +17 +17 1006.7 1005.6
01 20.06 СЗ 7 1600 м сильн. дождь 9/9 1050 м
[]
+17.4 +15.7 90 +16 +16 1007.9 1006.7 0.2
02 20.06 В 3 7000 м в посл. час дождь {ливн. осадки} 6/0 2000 м
[]
+16.7 +15.9 95 +17 +17 1006.8 1005.7 1
03 20.06 ЮВ 4
{14}
12 км {ливн. осадки, дождь} 4/0
[]
+16.6 +15.9 96 +16 +16 1006.7 1005.6 1
04 20.06 Ю 3 18 км 6/0 2000 м
[]
+17.1 +15.9 93 +17 +17 1006.7 1005.6
05 20.06 ЮВ 2 30 км 1/0
[]
+18.8 +16.4 86 +20 +23 1006.5 1005.4
06 20.06 Ю 2
{14}
25 км слаб. дождь 9/0 2000 м
[]
+19.4 +16.6 84 +22 +25 комфорт 1006.9 1005.8 +16.3 +20.2 0.0
07 20.06 Ю 3 28 км в посл. час дождь {ливн. осадки} 6/0
[]
+22.4 +17.7 75 +27 +32 душно 1006.9 1005.8 0.1
08 20.06 ЮЗ 8 22 км ясно +21.3 +17.3 78 +25 +27 комфорт 1007.4 1006.3
09 20.06 ЮЗ 6
{13}
20 км {ливн. осадки, дождь} 1/0
[]
+20.3 +17.1 82 +23 +29 комфорт 1007.9 1006.8 0.1
10 20.06 ЮЗ 7 15 км ясно +20.5 +17.1 81 +24 +28 комфорт 1008.5 1007.4
11 20.06 ЮЗ 7 29 км 1/0
[]
+20.8 +17.0 79 +24 +29 комфорт 1009.1 1008.0
12 20.06 ЮЗ 8
{13}
25 км {ливн. осадки, дождь} 1/0
[]
+20.3 +16.5 79 +23 +26 комфорт 1009.3 1008.2
13 20.06 З 8 22 км 1/0
[]
+19.0 +16.2 84 +20 +22 1009.0 1007.9
14 20.06 ЮЗ 8 24 км в посл. час осадки {ливн. осадки, морось} 6/0
[]
+20.5 +16.7 79 +23 +25 комфорт 1009.3 1008.2
15 20.06 ЮЗ 7 29 км {ливн. осадки, морось} 6/0
[]
+20.0 +16.0 78 +22 +24 комфорт 1009.3 1008.2 0.0
16 20.06 ЮЗ 8 23 км 4/0
[]
+18.8 +15.9 83 +19 +20 1009.7 1008.6
17 20.06 ЮЗ 7 16 км ясно +18.5 +16.2 86 +19 +19 1009.9 1008.8
18 20.06 ЮЗ 6 13 км {ливн. осадки, морось} 4/0
[]
+18.2 +16.1 88 +18 +18 1009.9 1008.8 +18.0 +23.4
19 20.06 ЮЗ 6 16 км 4/0
[]
+17.9 +15.7 87 +17 +17 1010.4 1009.3
20 20.06 ЮЗ 6 12 км 1/0
[]
+17.2 +15.7 91 +16 +16 1011.0 1009.9
21 20.06 ЮЗ 6 11 км ясно +17.0 +15.5 91 +16 +16 1011.8 1010.7
22 20.06 ЮЗ 6 10 км 9/9 1080 м
[]
+17.1 +15.8 92 +16 +16 1012.1 1011.0
23 20.06 З 8 11 км ясно +16.7 +15.6 93 +15 +15 1012.0 1010.9
00 21.06 З 5 7000 м дымка 1/0
[]
+16.4 +15.7 96 +15 +15 1012.1 1011.0
01 21.06 З 5 9000 м дымка ясно +16.3 +15.6 96 +15 +15 1012.8 1011.7
02 21.06 З 5 6000 м дымка 1/1 750 м
[]
+16.3 +15.7 96 +15 +15 1013.2 1012.1
03 21.06 З 6 8000 м дымка 4/0
[]
+16.3 +15.6 96 +15 +15 1013.0 1011.9
04 21.06 З 4 14 км 1/0
[]
+16.4 +15.4 94 +16 +16 1013.3 1012.2
05 21.06 З 4 19 км 1/0
[]
+16.1 +14.6 91 +15 +17 1014.1 1012.9
06 21.06 З 3 18 км {дымка} 9/0 2000 м
[]
+16.5 +15.0 91 +16 +19 1014.5 1013.4 +16.0 +18.2
07 21.06 З 4 16 км 9/0 2000 м
[]
+16.4 +14.8 90 +16 +19 1014.9 1013.8
08 21.06 З 6 10 км слаб. ливневой дождь 9/9 150 м
[]
+16.5 +15.5 94 +15 +16 1015.4 1014.2
09 21.06 ЮЗ 6 27 км {ливн. осадки, дождь} 9/9 1300 м
[]
+17.9 +14.8 82 +17 +18 1015.7 1014.6 0.0
10 21.06 ЮЗ 7 30 км 1/1 1500 м
[]
+18.3 +15.1 82 +18 +22 1016.1 1015.0
11 21.06 З 9 24 км 1/0
[]
+18.3 +14.0 76 +18 +20 1016.2 1015.1
12 21.06 З 9 29 км {ливн. осадки, дождь} ясно +18.2 +13.4 74 +17 +19 1016.4 1015.3
13 21.06 З 9 26 км 1/0
[]
+18.3 +14.3 77 +18 +19 1016.6 1015.4
14 21.06 З 11 26 км ясно +18.2 +14.1 77 +17 +17 1016.6 1015.5
15 21.06 З 10 35 км ясно +18.1 +13.7 75 +17 +17 1016.8 1015.6
16 21.06 З 8 30 км ясно +18.0 +13.8 76 +17 +18 1016.8 1015.7
17 21.06 ЮЗ 7 30 км ясно +17.5 +13.9 79 +17 +17 1017.1 1015.9
18 21.06 З 8 35 км ясно +17.4 +13.7 79 +16 +16 1017.4 1016.2 +16.2 +18.9
19 21.06 З 8 40 км ясно +16.8 +13.5 81 +15 +15 1017.6 1016.5
20 21.06 З 7 35 км ясно +16.5 +14.3 87 +15 +15 1018.5 1017.3
21 21.06 З 4 45 км 1/0
[]
+16.0 +12.4 79 +15 +15 1019.0 1017.8
22 21.06 З 5 45 км 1/0
[]
+15.9 +12.8 82 +15 +15 1019.3 1018.2
23 21.06 З 6 40 км ясно +16.0 +12.3 79 +15 +15 1020.1 1019.0
00 22.06 З 8 40 км ясно +15.7 +11.7 77 +14 +14 1020.5 1019.4
01 22.06 СЗ 7 35 км ясно +15.4 +11.0 75 +14 +14 1021.1 1020.0
02 22.06 СЗ 5 35 км ясно +14.5 +10.8 78 +13 +13 1021.6 1020.5
03 22.06 СЗ 6 35 км ясно +14.2 +10.8 80 +12 +12 1022.1 1021.0
04 22.06 СЗ 6 35 км ясно +14.2 +10.2 77 +12 +13 1022.7 1021.6
05 22.06 СЗ 6 35 км ясно +14.3 +9.1 71 +12 +13 1023.2 1022.0
06 22.06 СЗ 6 35 км ясно +14.7 +9.1 69 +13 +15 1023.6 1022.5 +14.1 +17.4
07 22.06 СЗ 6 40 км ясно +15.2 +9.3 68 +14 +17 1024.1 1023.0
08 22.06 З 5 30 км ясно +15.8 +9.2 65 +15 +20 1024.6 1023.4
09 22.06 З 5 35 км ясно +16.6 +9.9 65 +16 +24 1024.8 1023.7
10 22.06 З 5 30 км ясно +16.7 +10.1 65 +16 +24 1025.1 1024.0
11 22.06 З 6 30 км ясно +17.3 +10.3 63 +17 +24 1025.1 1024.0
12 22.06 ЮЗ 6 30 км ясно +17.7 +9.9 60 +17 +23 1025.1 1024.0
13 22.06 З 7 30 км ясно +17.3 +9.7 61 +16 +20 1024.9 1023.8
14 22.06 З 7 30 км ясно +17.7 +9.9 60 +17 +20 1024.9 1023.8
15 22.06 ЮЗ 6 29 км ясно +17.6 +10.9 65 +17 +20 1024.7 1023.6
16 22.06 З 6 30 км ясно +17.5 +10.8 65 +17 +19 1024.3 1023.1
17 22.06 З 6 30 км ясно +17.3 +11.0 66 +17 +18 1024.1 1023.0
18 22.06 З 5 35 км ясно +17.0 +11.5 70 +16 +17 1023.9 1022.8 +14.7 +18.1
19 22.06 З 5 40 км ясно +16.4 +12.2 76 +15 +16 1023.7 1022.6
20 22.06 З 5 35 км ясно +16.1 +12.8 81 +15 +15 1024.0 1022.9
21 22.06 СЗ 3 45 км ясно +15.6 +11.9 79 +15 +15 1024.4 1023.3
22 22.06 С 6 40 км ясно +16.0 +10.2 68 +15 +15 1024.5 1023.4
23 22.06 45 км ясно +15.6 +9.6 67 1024.4 1023.3
00 23.06 С 5 40 км ясно +15.2 +10.5 74 +14 +14 1024.8 1023.7
01 23.06 С 5 30 км ясно +15.0 +11.1 77 +14 +14 1025.2 1024.1
02 23.06 С 5 35 км ясно +14.5 +10.9 79 +13 +13 1025.3 1024.2
03 23.06 СВ 5 30 км ясно +14.4 +10.4 77 +13 +13 1025.4 1024.3
04 23.06 СВ 4 30 км ясно +15.0 +11.3 79 +14 +14 1025.6 1024.5
05 23.06 СВ 4 35 км ясно +15.8 +11.3 75 +15 +16 1025.8 1024.7
06 23.06 СВ 3 35 км ясно +16.8 +11.7 72 +17 +21 1025.9 1024.8 +14.3 +17.0
07 23.06 СВ 4 29 км ясно +16.9 +11.5 70 +17 +22 1026.0 1024.9
08 23.06 СВ 4 29 км ясно +17.2 +11.6 70 +17 +24 1026.2 1025.0
09 23.06 СВ 4 27 км ясно +17.8 +11.8 68 +18 +26 1026.1 1025.0
10 23.06 СВ 3 40 км ясно +18.2 +11.6 65 +19 +31 опасность
простуды
1026.2 1025.1
11 23.06 В 3 29 км ясно +18.0 +11.9 68 +18 +33 опасность
простуды
1026.2 1025.1
12 23.06 В 3 30 км ясно +18.7 +12.9 69 +20 +34 опасность
простуды
1026.2 1025.1
13 23.06 СВ 3 35 км ясно +18.9 +11.0 60 +20 +32 1026.1 1024.9
14 23.06 СВ 3 29 км ясно +19.3 +10.9 58 +21 +30 комфорт 1025.8 1024.7
15 23.06 СВ 2 30 км ясно +19.7 +10.5 55 +21 +29 комфорт 1025.6 1024.5
16 23.06 В 2 30 км ясно +18.3 +9.4 56 +19 +24 1025.3 1024.2
17 23.06 ЮВ 3 35 км ясно +18.5 +9.4 55 +19 +21 1024.9 1023.7
18 23.06 ЮВ 2 40 км ясно +18.3 +10.7 61 +19 +20 1024.6 1023.5 +16.5 +19.9
19 23.06 ЮЗ 1 45 км ясно +15.5 +7.6 59 +16 +16 1024.9 1023.7
20 23.06 З 1 45 км ясно +14.2 +10.8 80 +15 +15 1025.5 1024.4
21 23.06 ЮЗ 1 45 км ясно +13.0 +10.2 83 +13 +13 1025.8 1024.7
22 23.06 ЮЗ 2 50 км ясно +13.4 +8.5 72 +13 +13 1026.0 1024.8
23 23.06 ЮЗ 2 50 км ясно +14.0 +10.7 80 +14 +14 1026.6 1025.4
00 24.06 ЮЗ 2 50 км ясно +13.9 +9.0 72 +14 +14 1026.6 1025.5
01 24.06 ЮЗ 1 50 км ясно +12.7 +4.7 58 +13 +13 1026.9 1025.8
02 24.06 штиль 0 50 км ясно +11.7 +4.8 63 +11 +11 1026.9 1025.8
03 24.06 В 1 50 км ясно +12.2 +7.1 71 +13 +13 1026.9 1025.7
05 24.06 ЮВ 1 40 км ясно +15.6 +9.1 65 +17 +20 1027.4 1026.2
06 24.06 В 1 30 км ясно +17.1 +8.7 58 +18 +24 1027.6 1026.5 +11.7 +18.2
07 24.06 В 3 40 км ясно +18.4 +13.7 74 +19 +26 1027.9 1026.8
08 24.06 В 3 35 км ясно +18.9 +14.9 78 +20 +29 1027.8 1026.7

 

Местоположение метеостанции Маяк Hammer Odde (Дания): широта 55.30 долгота 14.78 высота над уровнем моря 11 м.

В архиве по умолчанию представлена погода на Маяке Hammer Odde за последнюю неделю. Архивные данные за месяц целиком и за предыдущие месяцы, начиная с января 2011 года, Вы можете получить, выбрав интересующий диапазон дат из раскрывающегося списка и нажав кнопку "Ввод!".


*Определитесь, кто Вы:
робот инопланетянин человек

Внимание! Время в таблицах - всемирное. Для получения местного времени необходимо прибавить поправку, которая равна 1 ч.

Смотрите также архив погоды в соседних городах и на ближайших метеорологических станциях:

Погода в Рённе (Дания) (26 км)
Погода в Нексо (Дания) (34 км)
Погода в Скиллинге (Швеция) (35 км)
Погода в Рынге (Швеция) (69 км)
Погода в Хано (Швеция) (80 км)
Погода на Маяке Utklippan (Швеция) (93 км)
Погода в Мальмё аэропорту (Швеция) (93 км)
Погода в Хёрбю (Швеция) (94 км)
Погода в Карлскруне (Швеция) (107 км)
Погода в Арконе (Германия) (110 км)

Пояснения к столбцам:

Ветер - указаны скорость ветра в м/с - средняя за 10 мин, порывы в срок и между сроками (в фигурных скобках) и направление, откуда дует ветер: С - северный, СВ - северо-восточный, В - восточный, ЮВ - юго-восточный, Ю - южный, ЮЗ - юго-западный, З - западный, СЗ - северо-западный.
Видимость - горизонтальная дальность видимости в метрах или километрах. При видимости от 1 до 10 км при отсутствии осадков обычно наблюдается дымка, при ухудшении видимости до 1 км и менее - туман. В сухую погоду видимость может ухудшаться дымом, пылью или мглою.
Явления - указаны атмосферные явления, наблюдавшиеся в срок или в последний час перед сроком; фигурными скобками обозначены явления, наблюдавшиеся между сроками (за 1-3 часа до срока); квадратными скобками обозначены град или гололедные отложения с указанием их диаметра в мм.
Облачность - указаны через наклонную черту общая и нижняя облачность в баллах и высота нижней границы облаков в метрах; квадратными скобками обозначены формы облаков: Ci - перистые, Cs - перисто-слоистые, Cc - перисто-кучевые, Ac - высококучевые, As - высокослоистые, Sc - слоисто-кучевые, Ns - слоисто-дождевые, Cu - кучевые, Cb - кучево-дождевые. Подробнее классификацию облаков см. в Атласе облаков (PDF).
T - Температура воздуха - температура, измеренная на высоте 2 м над землей.
Td - Температура точки росы - температура, при понижении до которой содержащийся в воздухе водяной пар достигнет насыщения.
f - Относительная влажность воздуха - влажноcть воздуха, измеренная на высоте 2 м над землей.
Te - Эффективная температура - температура, которую ощущает одетый по сезону человек в тени. Характеристика душности погоды. При расчете учитывается влияние влажности воздуха и скорости ветра на теплоощущения человека.
Tes - Эффективная температура на солнце - температура, которую ощущает человек, с поправкой на солнечный нагрев. Характеристика знойности погоды. Зависит от высоты солнца над горизонтом, облачности и скорости ветра. Ночью, в пасмурную погоду, а также при ветре 12 м/с и более поправка равна нулю.
P - Атмосферное давление - приведенное к уровню моря атмосферное давление.
Po - Атмосферное давление - измеренное на уровне метеостанции атмосферное давление.
Tmin - Минимальная температура - минимум температуры воздуха на высоте 2 м над землей.
Tmax - Максимальная температура - максимум температуры воздуха на высоте 2 м над землей.
R - Количество осадков - Количество выпавших осадков за период времени, мм. При наведении курсора мыши на число - период времени, за который выпало указанное количество осадков.
R24 - Количество осадков - Количество выпавших осадков за 24 часа, мм.
S - Снежный покров - Высота снежного покрова, см. При наведении курсора мыши на число - состояние снежного покрова и степень покрытия местности в баллах.